Torna al catalogo

STARLINK-11102

AttivoComunicazioniVLEO
NORAD 60065·PAYLOAD·🇺🇸 United States

Lanciato Jun 19, 2024 da Vandenberg Space Force Base

Loading…

Prossimi Passaggi (prossime 24 ore)

TLE

AggiornatoSource: CelesTrak SupGP

Epoca: Sep 14, 2026, 14:17 UTC

1 60065C 24113G   26257.59562500  .00036002  00000+0  29660-3 0  2575
2 60065  53.1568 339.7651 0001263  64.8481 304.1175 15.69687914    12

Traccia STARLINK-11102 in tempo reale con AllMySat

Download on the App Store